[[{"header":{"parameterUnit":"m.s-1","parameterCategory":1,"la1":30.2991,"la2":30.254,"lo1":-89.0895,"lo2":-89.0444,"dy":0.0017,"dx":0.0017,"nx":28,"ny":28,"refTime":"2023-08-19T09:00:00:Z","depth":0,"parameterNumber":2,"parameterNumberName":"U-component_of_WINDS"},"data":[0,0,0,0,0,0,0,0,0,0,0,0,0,0,0,0,0,0,0,0,0,0,0,0,0,0,0,0,0,0,0,0,0,0,0,0,0,0,0,0,0,0,0,0,0,0,0,0,0,0,0,0,0,0,0,0,0,0,3.4618,3.4619,0,3.4742,3.4744,3.4745,3.4737,3.4735,3.4733,3.4731,3.4864,3.4869,3.4874,0,0,0,0,0,0,0,0,0,0,0,0,0,3.4379,3.4383,3.4618,3.4619,3.4621,3.4742,3.4744,3.4746,3.4737,3.4735,3.4732,3.473,3.4862,3.4868,3.4874,0,0,0,0,0,0,0,0,0,0,0,0,0,3.4491,3.4385,3.4618,3.4631,3.4634,3.4742,3.4744,3.4746,3.4737,3.4735,3.4732,3.4729,3.486,3.4867,3.4875,3.498,0,0,3.4899,3.4903,0,0,0,0,0,0,0,0,3.4485,3.45,3.4628,3.463,3.4633,3.4721,3.4708,3.4825,3.4738,3.4698,3.4731,3.4728,3.4819,3.483,3.4859,3.4986,3.4991,3.49,3.4905,3.4908,3.491,0,0,0,0,0,0,0,3.4477,3.4495,3.4667,3.463,3.4633,3.4633,3.4646,3.473,3.4773,3.4701,3.4701,3.4716,3.482,3.4852,3.4862,3.4993,3.49,3.4907,3.4912,3.4915,3.5215,3.5218,0,0,0,0,0,0,3.4465,3.4488,3.4663,3.4671,3.455,3.464,3.4654,3.4696,3.4772,3.4781,3.4718,3.4715,3.484,3.4853,3.4867,3.4996,3.4908,3.4915,3.492,3.5212,3.5216,3.5219,0,0,0,0,0,0,3.446,3.4481,3.4658,3.458,3.4602,3.4647,3.4694,3.47,3.4732,3.4784,3.4792,3.4742,3.4838,3.4856,3.4952,3.5,3.4919,3.4926,3.5208,3.5213,3.5217,3.5253,0,0,0,0,0,0,3.4453,3.4479,3.4518,3.458,3.4606,3.4739,3.4697,3.4704,3.4745,3.4742,3.4809,3.4818,3.4837,3.494,3.496,3.501,3.4932,3.5204,3.521,3.5216,3.5248,3.5259,3.5268,0,0,0,0,0,3.4445,3.4523,3.452,3.4541,3.4655,3.4742,3.4757,3.4776,3.4749,3.4789,3.4823,3.4816,3.4992,3.495,3.4972,3.5025,3.5201,3.5208,3.5215,3.5243,3.5257,3.5268,0,0,0,0,0,0,3.4466,3.4532,3.4528,3.4629,3.468,3.474,3.4791,3.4789,3.485,3.4845,3.4868,3.4884,3.4981,3.5013,3.4965,3.5132,3.5093,3.5105,3.5107,3.512,3.513,3.512,3.4939,0,0,0,0,0,3.4482,3.4546,3.46,3.4684,3.471,3.4746,3.4785,3.4795,3.485,3.4872,3.4913,3.4967,3.5035,3.5079,3.5144,3.5253,3.5269,3.53,3.531,3.5318,3.5328,3.539,3.5406,3.5243,3.5243,3.5243,0,0,3.4517,3.456,3.4599,3.4689,3.473,3.4797,3.4764,3.4836,3.4887,3.4883,3.4976,3.5008,3.5071,3.5174,3.5222,3.5204,3.5377,3.5328,3.5333,3.534,3.54,3.5415,3.5429,3.5248,3.5247,3.5246,0,0,3.4614,3.4652,3.4727,3.4769,3.4831,3.4855,3.4873,3.4934,3.4955,3.5049,3.5048,3.511,3.5226,3.5271,3.5309,3.5426,3.5423,3.5447,3.5499,3.5559,3.5572,3.5584,3.5627,3.5642,3.5457,3.5457,3.5457,0,3.4649,3.4748,3.4766,3.4839,3.488,3.4879,3.4956,3.4996,3.5077,3.5106,3.5085,3.5231,3.5273,3.5388,3.5417,3.5447,3.5471,3.5439,3.5568,3.558,3.5591,3.5633,3.5649,3.546,3.5459,3.5459,3.5459,0,3.479,3.4859,3.4913,3.4989,3.5036,3.5111,3.5143,3.5189,3.5196,3.5223,3.532,3.5371,3.5447,3.5475,3.5483,3.5592,3.5579,3.5563,3.5525,3.5609,3.5649,3.5665,3.5463,3.5463,3.5462,3.5461,0,0,3.4902,3.4989,3.5009,3.5045,3.5114,3.5169,3.5245,3.5318,3.5358,3.5415,3.548,3.558,3.5566,3.5609,3.5623,3.5675,3.5767,3.5653,3.5655,3.5673,3.5892,3.5904,3.5922,3.5765,3.5768,3.5771,3.5887,0,3.5007,3.514,3.516,3.5278,3.5343,3.5344,3.5411,3.5462,3.549,3.5552,3.5584,3.5654,3.563,3.5656,3.5708,3.5745,3.5811,3.5737,3.5829,3.5832,3.5813,3.5942,3.5955,3.6062,3.5903,3.5905,3.5907,0,3.5147,3.5206,3.5331,3.5393,3.5421,3.548,3.5551,3.5609,3.5668,3.5685,3.5734,3.5742,3.5824,3.5782,3.5896,3.5845,3.5884,3.5908,3.5913,3.5922,3.5874,3.5956,3.6097,3.6113,3.5932,3.593,3.5928,0,3.5218,3.533,3.5419,3.5449,3.5524,3.5566,3.5599,3.5655,3.5699,3.5761,3.579,3.5861,3.5901,3.5957,3.5985,3.5952,3.6098,3.6058,3.6116,3.6116,3.6147,3.6144,3.6296,3.6171,3.6171,3.6171,3.617,0,3.5333,3.541,3.5452,3.5507,3.5593,3.5616,3.5702,3.5735,3.5785,3.5848,3.5854,3.5914,3.5946,3.6012,3.6034,3.6126,3.6144,3.6162,3.6167,3.6161,3.6159,3.6187,3.6181,3.6175,3.6174,3.6173,3.6172,0,3.5427,3.5458,3.5556,3.5618,3.5636,3.5697,3.5752,3.5807,3.5835,3.5915,3.5936,3.5981,3.6058,3.6091,3.6187,3.6202,3.6308,3.6307,3.6287,3.6289,3.6346,3.634,3.6521,3.6547,3.6404,3.6406,3.6407,0,3.5499,3.5558,3.5627,3.5669,3.5703,3.5771,3.5815,3.5841,3.5888,3.5961,3.6008,3.6085,3.6147,3.6271,3.6314,3.6388,3.6389,3.6448,3.6401,3.6394,3.6392,3.6388,3.6395,3.6457,3.6458,3.6459,3.646,0,3.5623,3.5636,3.5699,3.5769,3.5822,3.5878,3.5933,3.5968,3.6003,3.6055,3.6134,3.6182,3.628,3.6357,3.6434,3.647,3.6472,3.6475,3.6492,3.6487,3.6474,3.6483,3.6312,3.647,3.6469,3.6469,3.6468,3.6468,3.5709,3.5762,3.5819,3.589,3.5934,3.5986,3.6041,3.6076,3.6142,3.6222,3.6234,3.6318,3.6379,3.6481,3.6521,3.6589,3.6575,3.66,3.6606,3.6612,3.6616,3.6463,3.6603,3.6603,3.6603,3.6603,3.6602,0,3.5835,3.5872,3.5937,3.6013,3.607,3.6065,3.6127,3.6175,3.6248,3.6304,3.6366,3.6457,3.6532,3.6582,3.6658,3.6703,3.6706,3.6723,3.672,3.6729,3.6624,3.6602,3.6719,3.6719,3.6719,3.6719,3.6719,3.6719,3.5907,3.5996,3.6016,3.6129,3.6167,3.6248,3.6284,3.6332,3.6377,3.6478,3.654,3.6571,3.6625,3.6706,3.6776,3.6789,3.6817,3.6835,3.6847,3.6748,3.6736,3.6724,3.6703,3.6841,3.6841,3.6946,3.6947,3.6948]},{"header":{"parameterUnit":"m.s-1","parameterCategory":1,"la1":30.2991,"la2":30.254,"lo1":-89.0895,"lo2":-89.0444,"dy":0.0017,"dx":0.0017,"nx":28,"ny":28,"refTime":"2023-08-19T09:00:00:Z","depth":0,"parameterNumber":3,"parameterNumberName":"V-component_of_WINDS"},"data":[0,0,0,0,0,0,0,0,0,0,0,0,0,0,0,0,0,0,0,0,0,0,0,0,0,0,0,0,0,0,0,0,0,0,0,0,0,0,0,0,0,0,0,0,0,0,0,0,0,0,0,0,0,0,0,0,0,0,-0.425,-0.425,0,-0.4207,-0.4206,-0.4206,-0.4188,-0.4188,-0.4188,-0.4189,-0.4143,-0.4142,-0.4141,0,0,0,0,0,0,0,0,0,0,0,0,0,-0.4319,-0.4318,-0.425,-0.425,-0.4249,-0.4207,-0.4206,-0.4205,-0.4188,-0.4188,-0.4188,-0.4189,-0.4144,-0.4142,-0.4141,0,0,0,0,0,0,0,0,0,0,0,0,0,-0.4284,-0.4318,-0.425,-0.4235,-0.4234,-0.4207,-0.4206,-0.4205,-0.4188,-0.4188,-0.4188,-0.4189,-0.4144,-0.4142,-0.4141,-0.4125,0,0,-0.4135,-0.4134,0,0,0,0,0,0,0,0,-0.4286,-0.4281,-0.4238,-0.4236,-0.4234,-0.4203,-0.4214,-0.4178,-0.4188,-0.4205,-0.4189,-0.4189,-0.4163,-0.416,-0.4151,-0.4123,-0.4121,-0.4134,-0.4133,-0.4132,-0.4132,0,0,0,0,0,0,0,-0.4288,-0.4283,-0.4233,-0.4238,-0.4235,-0.4231,-0.4226,-0.4207,-0.4184,-0.4204,-0.4203,-0.4198,-0.4162,-0.4153,-0.415,-0.412,-0.4134,-0.4133,-0.4131,-0.4131,-0.4079,-0.4079,0,0,0,0,0,0,-0.4293,-0.4285,-0.4234,-0.4232,-0.4261,-0.423,-0.4224,-0.4213,-0.4184,-0.418,-0.4198,-0.4197,-0.4156,-0.4152,-0.4148,-0.4129,-0.4132,-0.4131,-0.4129,-0.4079,-0.4079,-0.4079,0,0,0,0,0,0,-0.4295,-0.4289,-0.4236,-0.4258,-0.4251,-0.4228,-0.4216,-0.4212,-0.4203,-0.4179,-0.4175,-0.4192,-0.4156,-0.4151,-0.4131,-0.4127,-0.413,-0.4128,-0.4079,-0.4079,-0.4079,-0.409,0,0,0,0,0,0,-0.4297,-0.429,-0.4283,-0.4258,-0.425,-0.422,-0.4215,-0.4211,-0.4199,-0.4198,-0.4173,-0.4169,-0.4156,-0.4134,-0.4129,-0.4124,-0.4126,-0.408,-0.4079,-0.4079,-0.409,-0.409,-0.409,0,0,0,0,0,-0.4299,-0.4288,-0.4283,-0.4277,-0.4241,-0.4219,-0.4215,-0.42,-0.4199,-0.4193,-0.4178,-0.417,-0.4128,-0.4132,-0.4127,-0.4121,-0.408,-0.4079,-0.4079,-0.4089,-0.409,-0.409,0,0,0,0,0,0,-0.4312,-0.4284,-0.4278,-0.4258,-0.4241,-0.4217,-0.4208,-0.42,-0.4183,-0.4183,-0.4165,-0.4159,-0.4141,-0.4129,-0.4134,-0.4105,-0.4104,-0.4102,-0.4114,-0.4114,-0.4114,-0.4117,-0.4125,0,0,0,0,0,-0.4313,-0.4297,-0.4273,-0.4258,-0.425,-0.423,-0.422,-0.421,-0.4192,-0.4185,-0.4168,-0.4151,-0.4134,-0.4123,-0.4106,-0.4088,-0.4083,-0.4082,-0.4082,-0.4082,-0.4081,-0.4071,-0.407,-0.4077,-0.4077,-0.4077,0,0,-0.4314,-0.4296,-0.4287,-0.426,-0.4246,-0.423,-0.4224,-0.4208,-0.4196,-0.4182,-0.4163,-0.415,-0.413,-0.4111,-0.4102,-0.4101,-0.4078,-0.4081,-0.4082,-0.408,-0.4071,-0.407,-0.4069,-0.4077,-0.4077,-0.4077,0,0,-0.4307,-0.4292,-0.4278,-0.4264,-0.4243,-0.4231,-0.4227,-0.4204,-0.4195,-0.4176,-0.4165,-0.4151,-0.4122,-0.4109,-0.4098,-0.4088,-0.408,-0.4083,-0.4084,-0.4075,-0.4074,-0.4074,-0.4071,-0.407,-0.4082,-0.4082,-0.4082,0,-0.4311,-0.4287,-0.4272,-0.4256,-0.4245,-0.4232,-0.4218,-0.4205,-0.418,-0.4172,-0.4171,-0.4135,-0.4121,-0.4099,-0.4097,-0.4088,-0.4085,-0.4085,-0.4075,-0.4075,-0.4074,-0.4071,-0.407,-0.4082,-0.4082,-0.4082,-0.4082,0,-0.4292,-0.4276,-0.4267,-0.4244,-0.4231,-0.4217,-0.42,-0.4189,-0.4181,-0.4169,-0.415,-0.4132,-0.4111,-0.4106,-0.4097,-0.4083,-0.4083,-0.4079,-0.4077,-0.4074,-0.4071,-0.407,-0.4083,-0.4083,-0.4083,-0.4083,0,0,-0.4291,-0.4261,-0.4258,-0.4247,-0.4224,-0.4211,-0.4196,-0.4177,-0.4169,-0.4152,-0.4139,-0.4116,-0.4113,-0.41,-0.409,-0.4082,-0.4077,-0.4079,-0.4079,-0.408,-0.4061,-0.4064,-0.4063,-0.4072,-0.4072,-0.4071,-0.4063,0,-0.4282,-0.4255,-0.4242,-0.422,-0.4206,-0.4194,-0.4181,-0.4166,-0.4155,-0.4141,-0.4128,-0.4112,-0.4108,-0.4101,-0.4093,-0.4079,-0.4073,-0.408,-0.406,-0.406,-0.4065,-0.4061,-0.4064,-0.4057,-0.4062,-0.4061,-0.4061,0,-0.4267,-0.4251,-0.4228,-0.4208,-0.4201,-0.419,-0.4172,-0.4159,-0.4141,-0.4134,-0.4121,-0.4111,-0.4096,-0.4096,-0.4075,-0.408,-0.4071,-0.4064,-0.4063,-0.406,-0.406,-0.4059,-0.4054,-0.4053,-0.4059,-0.4059,-0.4059,0,-0.4269,-0.4242,-0.4225,-0.4216,-0.4192,-0.4184,-0.4174,-0.4157,-0.4146,-0.4131,-0.4124,-0.4107,-0.4097,-0.4084,-0.4071,-0.4072,-0.4051,-0.405,-0.4045,-0.4045,-0.404,-0.4041,-0.4035,-0.4035,-0.4035,-0.4035,-0.4035,0,-0.4259,-0.4246,-0.4226,-0.4215,-0.4201,-0.4186,-0.4172,-0.416,-0.4146,-0.4133,-0.4122,-0.4111,-0.4094,-0.4081,-0.407,-0.4055,-0.405,-0.4044,-0.4041,-0.4045,-0.4046,-0.4039,-0.4039,-0.4035,-0.4035,-0.4035,-0.4035,0,-0.4259,-0.4245,-0.4226,-0.4205,-0.4199,-0.4189,-0.4171,-0.4161,-0.415,-0.4134,-0.413,-0.4112,-0.4096,-0.4082,-0.406,-0.4053,-0.4038,-0.4034,-0.4043,-0.4042,-0.4038,-0.4039,-0.4027,-0.4025,-0.4027,-0.4027,-0.4027,0,-0.4254,-0.4243,-0.4222,-0.4213,-0.4202,-0.4188,-0.4178,-0.4164,-0.4153,-0.4134,-0.4126,-0.411,-0.4095,-0.4071,-0.4056,-0.404,-0.4036,-0.4033,-0.4033,-0.4038,-0.4036,-0.4037,-0.4036,-0.4033,-0.4033,-0.4033,-0.4033,0,-0.4246,-0.424,-0.4225,-0.4209,-0.4197,-0.4183,-0.4169,-0.4163,-0.4146,-0.4135,-0.4119,-0.4108,-0.4087,-0.4071,-0.4053,-0.4043,-0.4035,-0.4033,-0.4031,-0.4035,-0.4041,-0.4038,-0.4044,-0.4033,-0.4033,-0.4033,-0.4033,-0.4033,-0.4243,-0.4234,-0.4217,-0.4202,-0.419,-0.4178,-0.4167,-0.4155,-0.4141,-0.4123,-0.4116,-0.41,-0.4084,-0.406,-0.4049,-0.4037,-0.4035,-0.4032,-0.4032,-0.4031,-0.4032,-0.4043,-0.4034,-0.4034,-0.4033,-0.4033,-0.4033,0,-0.4235,-0.4224,-0.4211,-0.4192,-0.418,-0.4175,-0.4159,-0.415,-0.4135,-0.4121,-0.4108,-0.409,-0.4075,-0.4059,-0.4043,-0.4036,-0.4033,-0.4033,-0.4033,-0.4031,-0.4034,-0.4037,-0.4036,-0.4036,-0.4036,-0.4036,-0.4036,-0.4036,-0.423,-0.4214,-0.4206,-0.4185,-0.4174,-0.4158,-0.415,-0.4139,-0.4127,-0.4108,-0.4095,-0.4086,-0.4071,-0.4054,-0.404,-0.4036,-0.4031,-0.4032,-0.4027,-0.403,-0.403,-0.403,-0.4033,-0.4031,-0.4031,-0.4025,-0.4025,-0.4025]}]]